This is the latest recevied weather packets stored in our database for station/object N6ZHV-13. If no packets are shown the sender has not sent any weather packets the latest 10 day(s).
| Time | Temp. | Humidity | Pressure | Rain* | Wind** | Luminosity | Snow |
|---|---|---|---|---|---|---|---|
| 1788141429 | 26.67° C | 61% | 1005.8 hPa | 0 mm | - | - | - |
| 1788141129 | 26.67° C | 62% | 1005.8 hPa | 0 mm | - | - | - |
| 1788140829 | 26.67° C | 59% | 1005.9 hPa | 0 mm | - | - | - |
| 1788140529 | 27.22° C | 58% | 1005.9 hPa | 0 mm | - | - | - |
| 1788140229 | 26.67° C | 58% | 1005.9 hPa | 0 mm | - | - | - |
| 1788139929 | 27.22° C | 57% | 1005.9 hPa | 0 mm | - | - | - |
| 1788139629 | 27.22° C | 56% | 1005.9 hPa | 0 mm | - | - | - |
| 1788139336 | 27.78° C | 55% | 1005.9 hPa | 0 mm | - | - | - |
| 1788139029 | 27.78° C | 53% | 1005.9 hPa | 0 mm | - | - | - |
| 1788138729 | 28.33° C | 53% | 1005.9 hPa | 0 mm | - | - | - |
| 1788138429 | 28.33° C | 53% | 1005.9 hPa | 0 mm | - | - | - |
| 1788138129 | 28.89° C | 53% | 1005.9 hPa | 0 mm | - | - | - |
| 1788137829 | 28.89° C | 53% | 1005.9 hPa | 0 mm | - | - | - |
| 1788137529 | 28.89° C | 53% | 1005.9 hPa | 0 mm | - | - | - |
| 1788137229 | 28.89° C | 52% | 1005.8 hPa | 0 mm | - | - | - |
| 1788136929 | 29.44° C | 51% | 1005.9 hPa | 0 mm | - | - | - |
| 1788136629 | 29.44° C | 51% | 1005.9 hPa | 0 mm | - | - | - |
| 1788136329 | 30° C | 49% | 1005.9 hPa | 0 mm | - | - | - |
| 1788136029 | 29.44° C | 49% | 1006 hPa | 0 mm | - | - | - |
| 1788135729 | 29.44° C | 50% | 1006 hPa | 0 mm | - | - | - |
| 1788135429 | 29.44° C | 50% | 1006 hPa | 0 mm | - | - | - |
| 1788135129 | 30° C | 52% | 1006 hPa | 0 mm | - | - | - |
| 1788134829 | 30° C | 52% | 1006 hPa | 0 mm | - | - | - |
| 1788134529 | 29.44° C | 53% | 1006.1 hPa | 0 mm | - | - | - |
| 1788134229 | 29.44° C | 53% | 1006 hPa | 0 mm | - | - | - |
* Rain latest hour (hover to see other rain measurements)
** Current wind speed in m/s (hover to see current wind gust speed)